TimeCDT,TemperatureF,Dew PointF,Humidity,Sea Level PressureIn,VisibilityMPH,Wind Direction,Wind SpeedMPH,Gust SpeedMPH,PrecipitationIn,Events,Conditions,WindDirDegrees,DateUTC
12:53 AM,48.0,39.9,74,29.71,10.0,West,5.8,-,N/A,,Clear,270,2011-10-14 05:53:00
1:53 AM,48.0,39.0,71,29.71,10.0,West,8.1,-,N/A,,Clear,270,2011-10-14 06:53:00
2:53 AM,48.0,37.9,68,29.73,10.0,West,11.5,-,N/A,,Clear,280,2011-10-14 07:53:00
3:53 AM,48.0,37.9,68,29.73,10.0,West,8.1,-,N/A,,Clear,280,2011-10-14 08:53:00
4:53 AM,46.9,37.0,68,29.74,10.0,West,9.2,-,N/A,,Clear,270,2011-10-14 09:53:00
5:53 AM,48.0,37.0,66,29.75,10.0,WNW,11.5,-,N/A,,Clear,290,2011-10-14 10:53:00
6:53 AM,48.0,37.0,66,29.77,10.0,WNW,11.5,-,N/A,,Clear,290,2011-10-14 11:53:00
7:53 AM,46.4,37.4,71,29.78,10.0,West,8.1,-,N/A,,Clear,280,2011-10-14 12:53:00
8:53 AM,51.1,39.0,63,29.81,10.0,West,15.0,20.7,N/A,,Clear,280,2011-10-14 13:53:00
9:53 AM,54.0,42.1,64,29.81,10.0,WNW,16.1,28.8,N/A,,Clear,290,2011-10-14 14:53:00
10:53 AM,57.0,42.1,57,29.82,10.0,NW,18.4,27.6,N/A,,Clear,310,2011-10-14 15:53:00
11:53 AM,59.0,42.1,53,29.83,10.0,WNW,19.6,32.2,N/A,,Partly Cloudy,300,2011-10-14 16:53:00
12:53 PM,60.1,41.0,49,29.84,10.0,WNW,24.2,33.4,N/A,,Scattered Clouds,300,2011-10-14 17:53:00
1:53 PM,60.8,41.0,48,29.83,10.0,NW,16.1,31.1,N/A,,Overcast,310,2011-10-14 18:53:00
2:53 PM,61.0,39.9,46,29.83,10.0,NW,23.0,29.9,N/A,,Mostly Cloudy,310,2011-10-14 19:53:00
3:53 PM,62.1,37.0,39,29.83,10.0,WNW,20.7,35.7,N/A,,Mostly Cloudy,300,2011-10-14 20:53:00
4:53 PM,61.0,36.0,39,29.84,10.0,WNW,24.2,29.9,N/A,,Mostly Cloudy,290,2011-10-14 21:53:00
5:53 PM,59.0,33.1,38,29.86,10.0,WNW,19.6,25.3,N/A,,Partly Cloudy,290,2011-10-14 22:53:00
6:53 PM,55.9,33.1,42,29.87,10.0,WNW,13.8,19.6,N/A,,Clear,300,2011-10-14 23:53:00
7:53 PM,51.1,34.0,52,29.88,10.0,West,6.9,-,N/A,,Clear,280,2011-10-15 00:53:00
8:53 PM,50.0,34.0,54,29.89,10.0,West,8.1,-,N/A,,Clear,270,2011-10-15 01:53:00
9:53 PM,48.0,34.0,58,29.91,10.0,West,9.2,-,N/A,,Clear,280,2011-10-15 02:53:00
10:53 PM,48.9,35.1,59,29.93,10.0,WNW,10.4,-,N/A,,Clear,290,2011-10-15 03:53:00
11:53 PM,50.0,35.6,58,29.93,10.0,WNW,11.5,-,N/A,,Clear,290,2011-10-15 04:53:00